Hourly Data Report for May 20, 2012

All times are specified in Local Standard Time (LST). Add 1 hour to adjust for Daylight Saving Time where and when it is observed.

SAULT STE MARIE A
ONTARIO

46°29'06.000" N
84°30'35.000" W
192.00 m
6057591
71260
YAM

Download Data

Hourly Data (May 2012)
Hourly Data Report for May 20, 2012
Temp Definition
°C
Dew Point Temp Definition
°C
Rel Hum Definition
%
Wind Dir Definition
10's deg

Wind Spd Definition
km/h
Visibility Definition
km
Stn Press Definition
kPa
Hmdx Definition


Wind Chill Definition


Weather Definition


TIME
00:00 Legend Double Dagger 14.5 7.4 62 10 9 10.0 99.43     LegendNANA
01:00 Legend Double Dagger 13.2 7.9 70 9 8 10.0 99.43     Clear
02:00 Legend Double Dagger 13.1 8.0 71 8 10 10.0 99.42     LegendNANA
03:00 Legend Double Dagger 12.3 8.4 77 8 11 10.0 99.44     LegendNANA
04:00 Legend Double Dagger 11.6 9.0 84 9 8 10.0 99.45     Clear
05:00 Legend Double Dagger 13.0 8.9 76 8 10 10.0 99.44     LegendNANA
06:00 Legend Double Dagger 14.2 9.1 71 10 9 10.0 99.46     LegendNANA
07:00 Legend Double Dagger 15.7 9.7 67 8 15 10.0 99.48     Mostly Cloudy
08:00 Legend Double Dagger 18.3 11.2 63 9 12 10.0 99.47     LegendNANA
09:00 Legend Double Dagger 22.1 12.5 54 9 10 10.0 99.44 25   LegendNANA
10:00 Legend Double Dagger 26.2 14.8 49 11 7 10.0 99.39 30   Mostly Cloudy
11:00 Legend Double Dagger 26.8 14.8 47 8 14 10.0 99.35 31   LegendNANA
12:00 Legend Double Dagger 29.3 14.9 41 18 9 10.0 99.30 33   LegendNANA
13:00 Legend Double Dagger 30.1 14.9 39 18 10 10.0 99.23 34   Mostly Cloudy
14:00 Legend Double Dagger 31.9 14.4 34 19 23 10.0 99.16 36   LegendNANA
15:00 Legend Double Dagger 32.1 15.5 36 15 15 10.0 99.11 36   LegendNANA
16:00 Legend Double Dagger 30.3 14.7 38 12 16 10.0 99.02 34   Mostly Cloudy
17:00 Legend Double Dagger 29.1 13.6 38 12 16 10.0 98.93 32   LegendNANA
18:00 Legend Double Dagger 27.0 13.9 44 12 15 10.0 98.92 30   LegendNANA
19:00 Legend Double Dagger 26.2 14.5 48 13 9 10.0 98.96 30   Mostly Cloudy
20:00 Legend Double Dagger 21.9 13.9 60 8 13 10.0 98.95 25   LegendNANA
21:00 Legend Double Dagger 20.5 12.8 61 8 14 10.0 98.92     LegendNANA
22:00 Legend Double Dagger 21.3 12.8 58 31 19 10.0 99.03     Cloudy
23:00 Legend Double Dagger 17.6 13.8 78 5 9 10.0 98.90     LegendNANA

Notes on Data Quality.

Legend

  • E = Estimated
  • M = Missing
  • NA = Not Available
  • ‡ = Partner data that is not subject to review by the National Climate Archives
Date modified: